TimeEDT,TemperatureF,Dew PointF,Humidity,Sea Level PressureIn,VisibilityMPH,Wind Direction,Wind SpeedMPH,Gust SpeedMPH,PrecipitationIn,Events,Conditions,WindDirDegrees,DateUTC
12:00 AM,44.1,37.4,77,-9999,-9999.0,West,2.3,-,N/A,,Unknown,260,2012-10-08 04:00:00
1:00 AM,43.7,36.7,76,-9999,-9999.0,SW,2.3,-,N/A,,Unknown,220,2012-10-08 05:00:00
2:00 AM,43,37,73,,,NW,1.2,,,,,310,2012-10-08 06:00:00
2:00 AM,43.2,37.2,80,-9999,-9999.0,NW,1.2,-,N/A,,Unknown,310,2012-10-08 06:00:00
3:00 AM,42.6,37.6,82,-9999,-9999.0,Calm,Calm,-,0.01,,Unknown,0,2012-10-08 07:00:00
4:00 AM,41.9,38.7,88,-9999,-9999.0,Calm,Calm,-,N/A,,Unknown,0,2012-10-08 08:00:00
5:00 AM,42.3,39.4,90,-9999,-9999.0,SSW,1.2,-,N/A,,Unknown,210,2012-10-08 09:00:00
6:00 AM,39.9,37.4,91,-9999,-9999.0,SW,2.3,-,N/A,,Unknown,230,2012-10-08 10:00:00
7:00 AM,38.1,36.1,93,-9999,-9999.0,SW,3.5,-,N/A,,Unknown,230,2012-10-08 11:00:00
8:00 AM,40,37,85,,,WSW,3.5,,,,,250,2012-10-08 12:00:00
8:00 AM,40.3,37.0,88,-9999,-9999.0,WSW,3.5,-,N/A,,Unknown,250,2012-10-08 12:00:00
9:00 AM,44.1,37.8,78,-9999,-9999.0,WNW,2.3,-,N/A,,Unknown,300,2012-10-08 13:00:00
10:00 AM,46.4,31.8,57,-9999,-9999.0,WNW,3.5,-,N/A,,Unknown,290,2012-10-08 14:00:00
11:00 AM,48.7,30.7,50,-9999,-9999.0,West,4.6,-,N/A,,Unknown,260,2012-10-08 15:00:00
12:00 PM,50.2,27.7,42,-9999,-9999.0,West,3.5,-,N/A,,Unknown,270,2012-10-08 16:00:00
1:00 PM,51.8,26.1,37,-9999,-9999.0,SW,6.9,-,N/A,,Unknown,230,2012-10-08 17:00:00
2:00 PM,54,28,24,,,SSW,2.3,,,,,210,2012-10-08 18:00:00
2:00 PM,53.8,28.0,37,-9999,-9999.0,SSW,2.3,-,N/A,,Unknown,210,2012-10-08 18:00:00
3:00 PM,54.3,30.2,40,-9999,-9999.0,SW,4.6,-,N/A,,Unknown,230,2012-10-08 19:00:00
4:00 PM,55.0,27.7,35,-9999,-9999.0,SW,3.5,-,N/A,,Unknown,220,2012-10-08 20:00:00
5:00 PM,54.1,30.0,40,-9999,-9999.0,SSE,5.8,-,N/A,,Unknown,160,2012-10-08 21:00:00
6:00 PM,50.0,34.2,55,-9999,-9999.0,South,1.2,-,N/A,,Unknown,170,2012-10-08 22:00:00
7:00 PM,45.9,37.2,72,-9999,-9999.0,Calm,Calm,-,N/A,,Unknown,0,2012-10-08 23:00:00
8:00 PM,44,39,75,,,Calm,Calm,,,,,,2012-10-09 00:00:00
8:00 PM,44.1,38.7,81,-9999,-9999.0,Calm,Calm,-,N/A,,Unknown,0,2012-10-09 00:00:00
9:00 PM,41.9,38.8,89,-9999,-9999.0,Calm,Calm,-,N/A,,Unknown,0,2012-10-09 01:00:00
10:00 PM,42.6,34.5,73,-9999,-9999.0,ESE,1.2,-,N/A,,Unknown,110,2012-10-09 02:00:00
11:00 PM,41.5,34.9,77,-9999,-9999.0,ESE,3.5,-,N/A,,Unknown,120,2012-10-09 03:00:00